TimeEDT,TemperatureF,Dew PointF,Humidity,Sea Level PressureIn,VisibilityMPH,Wind Direction,Wind SpeedMPH,Gust SpeedMPH,PrecipitationIn,Events,Conditions,WindDirDegrees,DateUTC
12:05 AM,69.8,66.2,88,29.78,6.0,SW,3.5,-,0.00,Rain,Light Rain,220,2013-07-11 04:05:00
12:31 AM,69.8,68.0,94,29.79,4.0,SW,6.9,-,0.02,Rain-Thunderstorm,Light Rain,220,2013-07-11 04:31:00
12:51 AM,68.0,64.9,90,29.79,4.0,WSW,13.8,23.0,0.06,Rain-Thunderstorm,Heavy Thunderstorms and Rain,240,2013-07-11 04:51:00
1:01 AM,66.2,64.4,94,29.80,3.0,SW,10.4,-,0.04,Rain-Thunderstorm,Heavy Thunderstorms and Rain,230,2013-07-11 05:01:00
1:11 AM,66.2,64.4,94,29.79,2.5,SW,8.1,17.3,0.10,Rain-Thunderstorm,Thunderstorms and Rain,230,2013-07-11 05:11:00
1:27 AM,66.2,64.4,94,29.80,3.0,WSW,5.8,17.3,0.16,Rain-Thunderstorm,Thunderstorms and Rain,240,2013-07-11 05:27:00
1:35 AM,64.4,64.4,100,29.80,1.8,West,4.6,-,0.22,Rain-Thunderstorm,Heavy Thunderstorms and Rain,260,2013-07-11 05:35:00
1:51 AM,64.9,64.0,97,29.79,1.0,West,9.2,-,0.49,Rain-Thunderstorm,Heavy Rain,260,2013-07-11 05:51:00
2:06 AM,64.4,64.4,100,29.79,3.0,Calm,Calm,-,0.13,Rain-Thunderstorm,Thunderstorms and Rain,0,2013-07-11 06:06:00
2:17 AM,64.4,62.6,94,29.79,5.0,SSW,9.2,-,0.14,Rain-Thunderstorm,Light Rain,210,2013-07-11 06:17:00
2:38 AM,64.4,62.6,94,29.78,6.0,Calm,Calm,-,0.16,Rain,Light Rain,0,2013-07-11 06:38:00
2:51 AM,64.0,63.0,96,29.77,10.0,Calm,Calm,-,0.16,,Mostly Cloudy,0,2013-07-11 06:51:00
2:59 AM,64.4,62.6,94,29.81,1.8,Calm,Calm,-,0.05,Rain,Light Rain,0,2013-07-11 06:59:00
3:07 AM,64.4,62.6,94,29.81,2.0,Calm,Calm,-,0.06,Rain,Light Rain,0,2013-07-11 07:07:00
3:14 AM,64.4,62.6,94,29.81,10.0,Calm,Calm,-,0.06,Rain,Light Rain,0,2013-07-11 07:14:00
3:51 AM,64.0,64.0,100,29.78,10.0,Calm,Calm,-,0.06,,Overcast,0,2013-07-11 07:51:00
4:07 AM,64.4,64.4,100,29.81,8.0,Calm,Calm,-,0.00,Rain,Light Rain,0,2013-07-11 08:07:00
4:51 AM,64.9,63.0,93,29.79,10.0,WSW,3.5,-,0.00,,Overcast,250,2013-07-11 08:51:00
5:02 AM,64.4,62.6,94,29.81,10.0,WSW,3.5,-,N/A,,Mostly Cloudy,240,2013-07-11 09:02:00
5:51 AM,63.0,62.1,97,29.81,8.0,Calm,Calm,-,N/A,,Partly Cloudy,0,2013-07-11 09:51:00
6:33 AM,62.6,60.8,94,29.85,10.0,WNW,3.5,-,N/A,,Mostly Cloudy,300,2013-07-11 10:33:00
6:51 AM,63.0,61.0,93,29.83,10.0,Calm,Calm,-,N/A,,Overcast,0,2013-07-11 10:51:00
7:10 AM,62.6,60.8,94,29.87,10.0,Variable,4.6,-,N/A,,Overcast,0,2013-07-11 11:10:00
7:19 AM,62.6,60.8,94,29.87,10.0,Variable,4.6,-,N/A,,Overcast,0,2013-07-11 11:19:00
7:48 AM,62.6,60.8,94,29.88,10.0,Variable,4.6,-,N/A,,Scattered Clouds,0,2013-07-11 11:48:00
7:51 AM,63.0,61.0,93,29.86,10.0,Variable,5.8,-,N/A,,Scattered Clouds,0,2013-07-11 11:51:00
8:01 AM,62.6,60.8,94,29.88,10.0,Calm,Calm,-,N/A,,Mostly Cloudy,0,2013-07-11 12:01:00
8:10 AM,62.6,60.8,94,29.89,10.0,Calm,Calm,-,N/A,,Mostly Cloudy,0,2013-07-11 12:10:00
8:14 AM,62.6,60.8,94,29.89,10.0,Variable,5.8,-,N/A,,Mostly Cloudy,0,2013-07-11 12:14:00
8:32 AM,64.4,60.8,88,29.89,10.0,Variable,3.5,-,N/A,,Mostly Cloudy,0,2013-07-11 12:32:00
8:51 AM,64.9,60.1,84,29.88,10.0,Variable,3.5,-,N/A,,Mostly Cloudy,0,2013-07-11 12:51:00
9:00 AM,64.4,59.0,83,29.90,10.0,Variable,3.5,-,N/A,,Overcast,0,2013-07-11 13:00:00
9:21 AM,66.2,60.8,83,29.90,10.0,Variable,3.5,-,N/A,,Mostly Cloudy,0,2013-07-11 13:21:00
9:51 AM,68.0,60.1,76,29.89,10.0,Variable,5.8,-,N/A,,Mostly Cloudy,0,2013-07-11 13:51:00
9:58 AM,66.2,59.0,78,29.91,10.0,North,8.1,-,N/A,,Mostly Cloudy,350,2013-07-11 13:58:00
10:11 AM,69.8,60.8,73,29.91,10.0,Variable,5.8,-,N/A,,Scattered Clouds,0,2013-07-11 14:11:00
10:51 AM,69.1,59.0,70,29.89,10.0,Variable,6.9,-,N/A,,Partly Cloudy,0,2013-07-11 14:51:00
11:51 AM,69.1,59.0,70,29.90,10.0,Variable,5.8,-,N/A,,Mostly Cloudy,0,2013-07-11 15:51:00
12:51 PM,69.1,57.9,68,29.91,10.0,NNW,8.1,-,N/A,,Mostly Cloudy,340,2013-07-11 16:51:00
1:51 PM,69.1,54.0,58,29.92,10.0,NNW,8.1,-,N/A,,Mostly Cloudy,340,2013-07-11 17:51:00
2:51 PM,73.0,55.9,55,29.93,10.0,Variable,5.8,-,N/A,,Scattered Clouds,0,2013-07-11 18:51:00
3:51 PM,72.0,54.0,53,29.94,10.0,Variable,6.9,-,N/A,,Clear,0,2013-07-11 19:51:00
4:51 PM,71.1,53.1,53,29.95,10.0,NW,6.9,25.3,N/A,,Partly Cloudy,310,2013-07-11 20:51:00
5:51 PM,69.1,53.1,57,29.96,10.0,Variable,4.6,-,N/A,,Scattered Clouds,0,2013-07-11 21:51:00
6:51 PM,70.0,53.1,55,29.97,10.0,North,6.9,-,N/A,,Clear,350,2013-07-11 22:51:00
7:51 PM,68.0,54.0,61,29.99,10.0,North,3.5,-,N/A,,Clear,350,2013-07-11 23:51:00
8:51 PM,60.1,55.0,83,30.01,10.0,Calm,Calm,-,N/A,,Clear,0,2013-07-12 00:51:00
9:51 PM,55.9,55.0,97,30.04,10.0,Calm,Calm,-,N/A,,Clear,0,2013-07-12 01:51:00
10:51 PM,54.0,53.1,97,30.05,10.0,Calm,Calm,-,N/A,,Clear,0,2013-07-12 02:51:00
11:51 PM,52.0,51.1,97,30.06,10.0,Calm,Calm,-,N/A,,Clear,0,2013-07-12 03:51:00